Probability
0 0 0 0 0 0 0 0 0 0 0 0 0 0 0 0 0 0 0 0 0 0 0 0 0 0 0 0 0 0 0 0 0 1 2 3 3 2 1 0 0 0 0 0
0 0 0 0 0 0 0 0 0 0 0 0 0 0 0 0 0 0 0 0 0 0 0 0 0 0 0 0 0 0 0 0 0 1 2 3 3 2 1 0 0 0 0 0
0 0 0 0 0 0 0 0 0 0 0 0 0 0 0 0 0 0 0 0 0 0 0 0 0 0 0 0 0 0 0 0 0 1 2 3 3 2 1 0 0 0 0 0
0 0 0 0 0 0 0 0 0 0 0 0 0 0 0 0 0 0 0 0 0 0 0 0 0 0 0 0 0 0 0 0 0 0 1 2 2 1 0 0 0 0 0 0
0 0 0 0 0 0 0 0 0 0 0 0 0 0 0 0 0 0 0 0 0 0 0 0 0 0 0 0 0 0 0 0 0 0 0 1 1 0 0 0 0 0 0 0
0 0 0 0 0 0 0 0 0 0 0 0 0 0 0 0 0 0 0 0 0 0 0 0 0 0 0 0 0 0 0 0 0 0 0 0 0 0 0 0 0 0 0 0
0 0 0 0 0 0 0 0 0 0 0 0 0 0 0 0 0 0 0 0 0 0 0 0 0 0 0 0 0 0 0 0 0 0 0 0 0 0 0 0 0 0 0 0
0 0 0 0 0 0 0 0 0 0 0 0 0 0 0 0 0 0 0 0 0 0 0 0 0 0 0 0 0 0 0 0 0 0 0 0 0 0 0 0 0 0 0 0
0 0 0 0 0 0 0 0 0 0 0 0 0 0 0 0 0 0 0 0 0 0 0 0 0 0 0 0 0 0 0 0 0 0 0 0 0 0 0 0 0 0 0 0
0 0 0 0 0 0 0 0 0 0 0 0 0 0 0 0 0 0 0 0 0 0 0 0 0 0 0 0 0 0 0 0 0 0 0 0 0 0 0 0 0 0 0 0
0 0 0 0 0 0 0 0 0 0 0 0 0 0 0 0 0 0 0 0 0 0 0 0 0 0 0 0 0 0 0 0 0 0 0 0 0 0 0 0 0 0 0 0
0 0 0 0 0 0 0 0 0 0 0 0 0 0 0 0 0 0 0 0 0 0 0 0 0 0 0 0 0 0 0 0 0 0 0 0 0 0 0 0 0 0 0 0
0 0 0 0 0 0 0 0 0 0 0 0 0 0 0 0 0 0 0 0 0 0 0 0 0 0 0 0 0 0 0 0 0 0 0 0 0 0 0 0 0 0 0 0
0 0 0 0 0 0 0 0 0 0 0 0 0 0 0 0 0 0 0 0 0 0 0 0 0 0 0 0 0 0 0 0 0 0 0 0 0 0 0 0 0 0 0 0
0 0 0 0 0 0 0 0 0 0 0 0 0 0 0 0 0 0 0 0 0 0 0 0 0 0 0 0 0 0 0 0 0 0 0 0 0 0 0 0 0 0 0 0
0 0 0 0 0 0 0 0 0 0 0 0 0 0 0 0 0 0 0 0 0 0 0 0 0 0 0 0 0 0 0 0 0 0 0 0 0 0 0 0 0 0 0 0
0 0 0 0 0 0 0 0 0 0 0 0 0 0 0 0 0 0 0 0 0 0 0 0 0 0 0 0 0 0 0 0 0 0 0 0 0 0 0 0 0 0 0 0
0 0 0 0 0 0 0 0 0 0 0 0 0 0 0 0 0 0 0 0 0 0 0 0 0 0 0 0 0 0 0 0 0 0 0 0 0 0 0 0 0 0 0 0
0 0 0 0 0 0 0 0 0 0 0 0 0 0 0 0 0 0 0 0 0 0 0 0 0 0 0 0 0 0 0 0 0 0 0 0 0 0 0 0 0 0 0 0
0 0 0 0 0 0 0 0 0 0 0 0 0 0 0 0 0 0 0 0 0 0 0 0 0 0 0 0 0 0 0 0 0 0 0 0 0 0 0 0 0 0 0 0
0 0 0 0 0 0 0 0 0 0 0 0 0 0 0 0 0 0 0 0 0 0 0 0 0 0 0 0 0 0 0 0 0 0 0 0 0 0 0 0 0 0 0 0
0 0 0 0 0 0 0 0 0 0 0 0 0 0 0 0 0 0 0 0 0 0 0 0 0 0 0 0 0 0 0 0 0 0 0 0 0 0 0 0 0 0 0 0
0 0 0 0 0 0 0 0 0 0 0 0 0 0 0 0 0 0 0 0 0 0 0 0 0 0 0 0 0 0 0 0 0 0 0 0 0 0 0 0 0 0 0 0
0 0 0 0 0 0 0 0 0 0 0 0 0 0 0 0 0 0 0 0 0 0 0 0 0 0 0 0 0 0 0 0 0 0 0 0 0 0 0 0 0 0 0 0
0 0 0 0 0 0 0 0 0 0 0 0 0 0 0 0 0 0 0 0 0 0 0 0 0 0 0 0 0 0 0 0 0 0 0 0 0 0 0 0 0 0 0 0
0 0 0 0 0 0 0 0 0 0 0 0 0 0 0 0 0 0 0 0 0 0 0 0 0 0 0 0 0 0 0 0 0 0 0 0 0 0 0 0 0 0 0 0
Wind_Speed
4 2 3 4 6 5 4 5 5 2 1 2 6 8 6 5 5 5 4 4 4 4 4 4 3 3 3 3 4 3 3 2 2 1 1 1 1 0 1 0 0 1 1 1
3 4 4 3 3 4 5 5 5 2 1 3 6 8 7 6 6 5 4 4 4 3 4 4 4 4 3 3 3 3 2 2 2 1 1 1 1 1 1 0 0 0 0 1
4 0 2 3 2 4 4 3 3 3 4 5 5 7 7 5 5 4 3 2 3 3 4 4 4 3 3 3 3 2 2 2 1 1 1 1 1 0 0 0 0 1 1 1
2 2 2 3 3 4 3 2 3 3 3 3 2 4 3 4 4 5 4 3 2 2 3 3 3 3 3 3 2 2 1 1 1 1 1 2 1 1 1 1 1 1 1 1
1 1 2 3 3 2 1 2 2 3 3 4 4 4 6 4 4 5 4 3 2 2 3 4 3 3 3 3 2 1 1 1 1 1 1 2 1 1 1 1 1 1 1 2
1 1 1 1 1 1 0 1 2 3 2 5 6 5 4 3 4 4 3 3 2 2 2 3 3 3 3 3 2 1 1 1 1 1 1 2 2 2 1 2 2 2 1 2
3 2 1 1 1 2 1 1 0 1 3 6 3 4 5 0 2 3 4 3 2 2 2 2 3 3 3 2 2 1 1 1 1 1 1 1 2 2 3 2 2 2 2 2
4 3 4 2 1 2 3 2 2 3 3 2 1 4 3 2 3 4 4 4 3 2 2 2 3 3 3 2 2 1 1 1 1 0 1 1 2 2 2 2 2 2 2 2
2 2 2 2 1 1 3 3 1 1 2 3 4 3 2 3 3 3 3 3 2 2 2 2 2 2 2 2 2 1 1 1 1 1 1 1 1 2 2 2 2 2 2 2
1 1 1 2 1 2 2 1 1 2 2 4 4 4 3 4 3 3 2 2 2 1 1 1 1 1 1 1 1 1 1 1 1 1 1 2 2 2 2 2 2 2 2 2
1 1 1 2 4 4 3 2 3 3 3 3 3 3 1 4 4 3 2 2 2 1 1 0 0 1 1 1 1 0 0 0 0 1 1 2 2 2 2 2 2 2 2 3
1 1 2 3 0 1 2 3 4 3 4 3 3 5 1 4 3 3 2 1 1 1 1 1 1 1 1 1 1 1 0 0 1 1 1 2 2 2 2 2 3 3 3 3
3 2 1 1 1 1 2 3 3 2 1 3 4 5 1 2 2 2 1 0 1 1 1 1 1 1 1 1 1 1 1 1 1 1 1 2 2 2 3 3 3 3 3 3
2 3 5 5 2 3 4 5 5 4 4 5 7 6 2 2 1 1 1 1 1 1 2 1 1 1 1 1 1 1 1 0 1 1 2 2 3 3 3 3 3 3 3 4
1 3 4 6 4 2 5 6 8 9 9 7 6 7 6 3 2 2 2 1 1 2 2 1 1 1 1 1 1 1 1 1 1 2 2 2 3 3 3 3 3 3 4 4
2 2 2 5 5 4 6 8 9 11 10 10 9 10 5 2 2 3 2 2 3 3 2 2 2 2 2 2 1 1 1 1 1 2 2 2 3 3 3 3 4 4 4 4
3 3 2 3 2 2 9 11 11 8 8 8 12 10 3 4 4 4 4 4 3 3 3 3 3 3 3 2 2 2 2 2 2 2 2 2 3 3 3 4 4 4 4 4
4 3 2 2 1 8 8 3 7 8 8 9 7 5 4 5 5 4 4 3 3 3 3 3 3 3 2 2 2 2 1 2 2 2 3 2 3 3 3 4 4 4 4 4
3 4 3 2 4 8 5 3 5 6 7 8 9 8 5 3 4 3 2 2 2 3 3 3 3 2 2 2 2 2 2 2 2 3 3 2 3 3 4 4 4 4 4 4
1 3 3 3 4 7 3 2 3 3 5 4 6 7 5 1 3 4 1 0 2 2 2 2 1 2 2 2 2 2 2 2 3 3 2 2 3 3 4 4 4 4 4 4
4 4 6 6 6 7 1 3 4 3 5 1 3 4 3 4 5 3 2 2 2 2 1 1 2 2 2 2 2 2 3 3 3 2 2 3 3 3 3 3 3 3 4 4
7 6 6 5 6 8 3 5 5 5 1 0 1 1 2 3 3 2 2 2 2 2 2 1 1 2 2 2 2 3 3 3 2 2 2 2 3 3 2 2 3 3 3 4
6 7 5 7 7 3 5 5 3 1 1 1 1 2 2 3 3 3 3 3 3 2 2 1 1 2 2 2 2 3 3 2 1 2 2 2 2 2 2 2 2 3 2 2
4 3 3 4 6 4 4 4 3 2 3 2 2 2 2 4 4 4 4 3 3 2 2 1 1 2 2 2 2 2 2 1 1 1 2 2 2 2 2 2 2 2 2 2
4 5 4 6 5 4 4 5 5 4 3 3 3 3 4 4 5 4 4 4 3 3 2 2 2 3 3 2 2 2 2 1 1 1 2 2 2 1 1 2 2 2 2 2
5 6 6 7 5 4 5 4 4 4 5 5 4 4 4 4 5 5 4 4 3 3 2 2 2 3 2 2 2 2 2 1 1 1 1 1 1 1 1 2 2 3 3 5
Wind_Direction
192 201 212 218 227 267 296 279 268 274 20 262 254 259 247 219 217 216 207 192 183 168 147 143 147 129 118 111 111 121 125 123 116 117 121 118 119 79 61 71 54 33 18 4
174 230 241 244 249 267 277 281 286 314 2 287 271 268 258 229 226 221 216 201 182 167 152 146 145 138 131 126 117 119 124 130 125 123 130 154 171 188 189 166 82 21 341 340
200 259 226 229 257 257 255 271 294 301 314 262 267 277 237 208 210 207 207 189 170 161 153 152 150 140 132 128 128 129 140 141 131 125 124 118 65 30 46 308 266 248 245 282
226 241 237 215 241 257 255 305 309 306 300 277 224 281 251 193 198 192 189 181 178 138 137 141 145 137 133 125 115 115 123 132 147 151 171 178 182 208 237 242 256 260 239 244
205 241 239 234 248 264 288 325 288 283 278 285 245 244 265 189 201 192 162 145 130 118 141 146 148 142 127 119 124 131 133 148 151 184 197 204 208 221 224 242 245 259 253 235
227 282 281 271 258 234 227 312 264 249 256 259 229 215 265 203 193 166 142 134 134 134 127 135 133 124 119 116 121 128 143 171 184 230 223 220 213 220 225 244 250 258 257 251
212 210 137 338 209 184 166 113 286 226 220 241 204 207 246 220 114 140 146 137 130 134 127 127 133 136 133 131 138 151 162 205 223 248 261 241 235 221 222 233 234 247 252 260
201 207 178 201 201 197 203 196 186 225 250 285 212 226 242 142 103 98 115 126 126 126 131 134 143 144 145 147 156 167 181 229 243 270 298 279 258 231 229 237 238 242 245 249
237 211 165 194 246 241 201 213 239 263 279 274 242 221 192 137 123 112 110 119 129 122 114 115 119 131 141 154 168 186 190 233 258 287 292 279 287 264 248 250 251 247 250 256
319 253 180 143 203 267 269 189 164 191 228 259 253 223 213 173 184 170 152 144 144 115 97 87 99 113 120 137 148 156 167 211 253 283 289 303 294 291 266 256 258 258 259 262
271 183 196 180 203 197 192 197 214 223 237 231 264 259 175 158 161 164 157 151 144 154 162 149 77 95 102 105 117 126 165 211 267 286 300 303 298 300 284 263 256 258 258 257
174 197 231 213 157 351 232 213 192 194 242 230 254 267 63 99 108 116 114 99 121 161 181 161 143 104 120 154 171 191 225 264 286 303 301 293 293 295 290 276 272 267 267 263
152 166 203 237 250 269 249 229 211 204 234 227 225 250 132 96 76 94 125 196 198 206 205 193 184 184 200 211 221 236 242 267 300 307 301 299 297 295 292 282 283 286 281 278
146 188 207 220 202 178 210 217 204 191 214 237 233 246 244 239 265 271 253 240 223 217 215 211 220 217 219 239 248 260 283 297 303 301 294 291 293 294 296 295 288 288 283 279
159 222 237 260 266 237 224 216 206 211 220 224 241 249 259 259 250 258 252 241 248 244 226 225 231 237 232 255 262 262 283 298 303 301 295 294 303 303 306 304 295 286 280 279
182 230 252 262 245 245 258 240 220 225 231 241 258 265 260 275 289 289 286 267 258 248 245 245 239 236 237 247 261 266 278 291 298 295 295 303 308 309 303 301 300 298 293 289
178 178 209 257 219 281 259 228 213 216 217 213 233 244 267 281 278 273 269 262 250 250 252 248 241 232 233 234 241 245 259 281 288 285 290 295 300 303 302 300 305 300 296 295
171 183 213 253 239 240 244 194 191 212 233 222 234 251 248 255 270 264 250 233 248 258 252 246 239 235 235 239 236 241 255 259 265 272 279 285 293 296 298 300 299 300 299 295
187 182 215 220 244 265 253 208 180 196 250 224 227 245 258 288 307 282 224 196 231 252 249 236 233 230 229 225 218 224 248 250 253 262 268 279 288 292 296 299 299 302 303 300
180 177 209 219 237 248 242 165 143 132 266 231 205 230 240 242 262 260 216 309 284 267 235 231 227 215 216 222 198 216 245 248 254 263 272 282 283 282 286 293 300 301 301 300
177 198 213 225 241 261 224 140 120 165 244 248 192 219 215 211 226 263 317 311 296 280 260 228 220 216 218 210 192 221 244 251 262 275 276 277 279 278 279 289 298 304 308 309
183 188 199 198 222 246 161 148 188 218 245 237 247 230 231 248 272 292 294 285 282 276 264 239 230 238 224 198 196 225 246 256 267 273 275 277 284 288 293 298 303 307 310 313
202 197 193 201 218 230 176 197 215 189 251 270 267 268 247 259 267 271 275 270 265 259 253 242 227 248 248 214 204 227 249 245 261 281 285 291 301 299 296 297 302 307 310 315
220 200 215 250 254 243 225 234 240 229 231 255 263 263 251 260 263 266 265 266 261 257 243 236 227 243 260 256 241 237 243 231 241 265 283 290 291 294 297 293 292 298 304 310
205 175 207 246 264 275 246 225 230 238 248 257 254 242 237 246 258 256 257 254 252 255 246 227 226 239 254 261 252 249 242 217 241 262 268 278 285 289 300 298 292 291 284 293
199 188 195 228 217 210 245 236 222 233 244 242 245 255 247 235 248 252 251 246 240 236 227 231 234 241 253 251 254 259 248 218 215 247 262 278 298 304 300 304 317 310 296 311